Location: M.A.R.S.Observatory
(35.4031°N, 81.5481°W)
Time: 02:53:01
(UTC-04:00)

SL-8 R/B - Visible Passes

Search period start: 24 July 2016 00:00
Search period end: 03 August 2016 00:00
Orbit: 657 x 668 km, 48.4° (Epoch: 23 July)

Date Brightness Start Highest point End Pass type
(mag) Time Alt. Az. Time Alt. Az. Time Alt. Az.
24 Jul 6.4 01:04:00 10° NW 01:07:08 17° N 01:10:14 10° NE visible
24 Jul 5.5 02:46:41 10° NW 02:50:53 29° NNE 02:55:04 10° E visible
24 Jul 3.5 04:28:58 10° WNW 04:33:43 68° SW 04:38:27 10° SE visible
24 Jul 5.2 22:06:59 10° W 22:11:29 38° NNW 22:15:58 10° NE visible
24 Jul 6.4 23:51:47 10° NW 23:55:04 18° N 23:58:20 10° NE visible
25 Jul 6.1 01:35:26 10° NW 01:39:01 20° NNE 01:41:13 15° NE visible
25 Jul 5.8 03:17:38 10° NW 03:26:52 11° ESE 03:27:02 10° ESE visible
25 Jul 4.7 05:05:21 25° SSW 05:05:21 25° SSW 05:08:34 10° S visible
25 Jul 4.0 20:55:08 10° WSW 20:59:57 76° NW 21:04:46 10° NE visible
25 Jul 6.0 22:39:15 10° WNW 22:43:05 23° NNW 22:46:56 10° NE visible
26 Jul 6.4 00:23:51 10° NW 00:27:00 17° N 00:30:08 10° NE visible
26 Jul 5.9 02:06:28 10° NW 02:08:32 21° NNW 02:08:32 21° NNW visible
26 Jul 5.3 21:26:51 10° W 21:31:19 36° NNW 21:35:46 10° NE visible
26 Jul 6.4 23:11:41 10° NW 23:14:56 18° N 23:18:10 10° NE visible
27 Jul 6.0 00:55:15 10° NW 00:58:52 21° NNE 00:59:11 21° NNE visible
27 Jul 6.1 21:59:10 10° WNW 22:02:57 22° NNW 22:06:44 10° NE visible
27 Jul 6.3 23:43:42 10° NW 23:46:52 17° N 23:50:02 10° NE visible
28 Jul 6.1 01:26:15 10° NW 01:28:03 20° NNW 01:28:03 20° NNW visible
28 Jul 6.3 22:31:35 10° NW 22:34:48 17° N 22:38:01 10° NE visible
29 Jul 5.8 00:15:02 10° NW 00:18:44 21° NNE 00:19:10 21° NNE visible
29 Jul 6.1 21:19:04 10° WNW 21:22:48 22° NNW 21:26:32 10° NE visible
29 Jul 6.2 23:03:32 10° NW 23:06:44 17° N 23:09:55 10° NE visible
30 Jul 5.9 00:46:02 10° NW 00:48:18 23° NNW 00:48:18 23° NNW visible
30 Jul 6.3 21:51:28 10° NW 21:54:40 17° N 21:57:52 10° NE visible
30 Jul 5.7 23:34:50 10° NW 23:38:36 22° NNE 23:39:35 21° NE visible
31 Jul 6.4 01:17:00 10° NW 01:17:32 13° NW 01:17:32 13° NW visible
31 Jul 6.1 22:23:22 10° NW 22:26:36 17° N 22:29:50 10° NE visible
01 Aug 5.5 00:05:49 10° NW 00:08:51 29° N 00:08:51 29° N visible
01 Aug 6.2 21:11:22 10° NW 21:14:32 17° N 21:17:42 10° NE visible
01 Aug 5.6 22:54:37 10° NW 22:58:27 23° NNE 23:00:13 19° NE visible
02 Aug 6.1 00:36:48 10° NW 00:38:10 19° NW 00:38:10 19° NW visible
02 Aug 6.0 21:43:11 10° NW 21:46:28 18° N 21:49:44 10° NE visible
02 Aug 4.9 23:25:36 10° NW 23:29:35 36° NNE 23:29:35 36° NNE visible
